Theta_e
323 323 323 323 324 324 324 324 324 323 322 322 322 324 324 325 324 318 301 313 318 345 346 322 326 323 324 321 335 333 311 311 315 316 319 328 325 333 335 329 331 332 330 332 337
323 323 322 322 323 323 323 323 322 322 321 321 322 323 324 325 316 308 323 336 342 346 318 312 310 313 309 316 329 319 311 314 323 324 322 325 325 328 326 326 326 328 333 336 338
322 321 321 321 322 322 322 323 322 322 321 320 322 323 324 323 309 306 339 343 348 348 314 312 311 311 306 322 326 325 319 324 326 326 329 327 327 329 324 322 325 325 329 334 335
321 321 321 321 321 321 322 322 321 321 321 321 322 323 325 315 301 315 347 346 353 325 313 312 312 308 311 321 330 322 329 327 328 329 328 325 329 324 325 328 332 332 333 334 334
321 320 320 320 321 322 322 322 321 320 320 321 322 323 318 306 304 323 352 349 330 315 312 311 309 317 319 323 326 323 327 329 331 331 329 330 326 327 326 331 334 334 333 332 333
321 321 321 321 322 323 323 322 320 320 320 321 322 323 314 298 311 329 327 317 314 312 311 311 310 322 321 323 324 327 328 326 328 327 327 323 325 327 328 333 331 332 331 332 333
321 321 321 321 321 321 321 320 320 321 321 322 323 322 314 310 319 325 317 311 311 311 309 312 312 310 321 320 328 324 320 322 324 325 323 326 319 321 329 331 329 329 330 332 333
321 321 321 321 321 320 320 319 319 321 323 324 325 317 307 321 320 316 311 308 310 311 311 312 313 323 322 326 325 317 322 312 322 325 325 322 312 323 328 327 327 329 329 331 333
320 320 320 320 319 318 317 317 320 323 326 325 313 312 310 328 319 319 311 309 308 307 308 317 312 320 322 312 308 315 307 313 317 325 323 319 312 321 326 326 326 326 327 329 331
318 318 318 318 316 314 314 317 323 324 323 323 321 306 310 313 316 317 312 311 309 308 309 307 304 300 310 305 296 304 306 313 311 321 321 317 314 320 322 324 325 325 326 327 328
318 317 317 316 315 314 311 307 306 307 314 307 308 307 312 317 320 315 315 311 305 304 299 301 299 298 300 311 309 309 309 313 318 321 319 315 314 317 322 322 322 326 323 324 325
317 317 316 315 315 314 309 299 303 306 300 311 315 314 315 313 311 310 312 306 302 297 298 297 295 304 304 307 311 310 310 312 315 322 318 315 314 321 321 320 321 323 324 324 324
316 316 316 314 313 310 309 309 310 311 298 304 309 313 313 315 311 307 310 305 301 297 297 294 299 305 304 308 310 308 307 312 310 320 318 317 311 314 318 321 322 324 326 326 326
316 316 315 312 309 310 312 315 315 311 294 299 302 310 313 313 308 312 310 307 301 298 297 296 302 302 299 300 310 301 313 315 315 311 304 314 299 307 311 316 320 321 323 328 327
315 315 313 311 306 307 313 313 314 305 286 303 304 313 310 307 305 306 310 305 300 300 297 297 299 299 298 301 308 306 314 313 315 310 306 309 302 303 311 309 317 321 323 327 329
314 314 313 310 308 311 314 312 304 294 288 302 307 305 305 305 304 306 306 306 306 301 299 300 303 302 300 302 309 308 309 307 309 305 297 302 304 302 306 312 315 322 323 326 328
313 311 310 313 308 312 313 303 292 289 300 300 299 302 302 299 302 303 302 299 296 291 291 297 299 300 302 297 298 300 296 291 291 293 294 298 302 304 308 315 319 320 322 327 329
311 309 309 312 312 314 307 298 287 297 296 301 301 301 302 302 299 301 299 297 298 295 291 291 291 298 302 299 296 294 296 290 286 289 293 298 296 303 313 316 319 320 324 328 328
309 307 309 312 315 312 301 289 290 294 299 300 299 296 296 301 300 299 296 299 299 297 293 290 292 301 301 302 301 295 293 296 295 294 294 298 302 309 316 315 318 320 323 326 328
308 306 310 315 316 306 299 293 295 301 303 301 294 296 294 297 296 296 297 300 299 300 298 295 291 298 302 301 301 300 302 296 294 290 288 295 298 299 307 313 317 318 321 326 329
307 306 314 316 309 302 294 294 300 305 305 300 297 297 296 297 295 295 298 302 303 301 299 294 292 295 299 295 296 297 294 293 294 294 291 290 297 307 308 311 314 317 321 324 328
302 302 315 310 299 295 294 298 302 305 305 304 302 301 299 298 295 295 298 304 305 302 297 297 292 290 294 300 300 298 295 293 291 290 294 294 298 314 313 313 320 320 322 325 328
299 301 315 309 294 295 300 305 306 305 305 303 302 303 303 297 294 297 301 308 308 304 299 298 291 288 292 294 300 296 297 292 293 295 294 293 297 312 315 318 321 319 319 322 326
303 301 305 306 302 300 299 301 303 310 308 307 304 303 299 297 298 297 298 306 307 309 324 306 290 293 293 293 297 300 302 298 294 292 294 295 299 308 313 314 317 317 320 323 325
303 300 302 298 300 301 300 301 302 302 307 307 304 304 300 293 294 294 298 303 307 317 308 298 293 292 295 297 303 303 303 302 297 296 298 298 303 308 313 312 317 318 322 324 325
299 299 300 298 300 301 302 303 304 305 304 303 303 307 304 298 300 299 300 298 301 306 303 301 295 296 297 302 304 302 304 304 303 300 299 300 303 310 316 318 318 321 324 324 324
303 303 301 297 297 295 298 302 304 306 307 308 308 305 303 305 307 307 306 304 303 302 302 302 299 295 295 300 301 297 302 303 304 304 303 300 306 311 313 319 320 321 325 324 327
Wind_Speed
15 15 15 15 15 15 15 14 13 12 11 11 10 9 10 10 11 2 6 10 5 6 4 5 3 5 2 2 4 3 4 3 6 6 5 7 4 12 6 11 4 4 5 8 13
16 15 15 15 16 16 16 16 14 12 10 10 9 9 8 8 2 7 11 9 11 7 4 4 3 4 1 4 2 4 3 5 7 6 3 7 7 9 6 10 3 8 12 14 13
16 17 16 16 16 17 16 16 16 12 9 9 8 8 8 5 2 8 6 14 9 11 1 2 2 2 1 5 5 4 2 1 3 5 3 6 5 7 9 3 10 16 17 15 12
18 17 17 17 17 18 18 16 15 12 9 7 7 7 7 2 4 1 5 14 10 7 1 3 2 2 1 3 1 2 1 3 4 6 5 5 2 3 9 3 10 16 18 16 12
18 18 17 17 17 17 17 16 16 12 8 6 5 4 3 2 9 1 7 13 7 6 3 3 1 2 2 3 3 3 5 7 4 9 8 11 8 6 5 12 11 14 15 15 11
15 15 16 16 16 16 16 14 14 11 7 5 4 3 1 2 4 8 9 8 6 5 5 5 4 3 5 2 2 4 8 7 2 6 8 8 5 2 7 4 13 15 15 13 13
17 18 18 18 17 18 17 15 15 11 6 5 6 3 2 13 3 7 8 6 4 7 4 5 6 4 6 1 1 3 3 4 3 2 6 10 5 0 1 2 13 15 12 14 13
18 18 19 19 19 19 18 17 15 7 6 6 6 2 7 4 2 5 4 1 3 4 3 2 5 7 4 2 2 4 2 3 4 6 8 1 5 12 5 1 14 13 12 14 16
18 19 19 20 20 19 19 20 9 2 7 9 3 1 9 3 4 7 7 5 4 2 4 4 3 5 2 4 5 4 2 2 3 7 5 4 3 11 6 6 9 7 9 18 15
19 20 20 21 21 21 22 13 9 8 5 4 4 3 5 5 4 5 6 6 2 1 2 3 5 4 3 4 4 5 4 3 5 8 6 6 8 4 11 8 11 5 11 17 15
20 20 21 23 23 21 11 3 3 2 2 6 7 5 5 3 2 4 7 7 3 4 4 2 4 11 11 7 1 5 2 4 3 6 6 8 6 8 10 9 12 5 6 14 15
20 20 22 25 22 16 4 2 2 4 10 12 14 10 5 3 6 5 7 6 5 5 4 5 6 13 5 7 6 6 5 6 3 3 5 6 10 6 6 9 10 7 7 7 6
20 20 21 26 25 2 2 5 2 3 4 9 7 7 6 10 8 9 10 5 5 6 7 9 9 4 4 3 7 6 9 7 1 6 4 3 7 7 6 8 7 7 6 6 12
20 20 19 29 2 5 5 3 6 4 5 9 4 7 6 7 4 8 8 8 2 10 7 7 7 8 5 7 8 7 13 13 6 6 3 4 6 5 7 7 9 10 10 10 9
20 19 16 7 5 4 6 8 8 4 4 2 3 2 8 12 4 5 5 5 9 6 8 9 4 3 5 15 9 14 8 17 11 3 3 4 2 7 4 9 15 16 13 12 13
21 17 14 2 2 9 10 9 4 8 8 6 5 6 7 4 1 3 5 4 3 6 3 8 3 7 11 6 9 3 7 9 7 4 4 6 6 8 6 11 12 11 13 15 16
24 17 7 3 6 1 6 4 6 4 5 5 3 3 4 4 3 5 7 7 6 4 3 6 5 4 5 5 3 6 6 3 4 1 7 1 5 11 8 8 9 17 14 16 17
26 23 5 7 5 2 3 6 4 2 5 4 5 2 8 7 4 6 7 6 5 3 3 4 9 4 5 8 8 5 10 8 6 4 4 4 6 8 3 3 7 7 11 12 14
22 2 2 5 9 1 6 3 8 6 3 6 8 5 4 2 1 6 7 12 8 9 9 5 7 5 5 5 9 5 3 5 8 4 3 3 7 10 1 7 6 6 9 14 14
5 4 4 2 8 5 6 4 4 3 4 3 2 3 4 5 4 5 9 8 6 11 6 5 2 6 8 4 3 9 8 3 3 5 4 5 6 7 4 5 5 4 7 9 12
3 4 4 4 0 6 4 6 5 6 3 3 2 4 4 3 4 3 5 9 9 3 6 6 4 8 1 2 8 2 1 6 7 5 7 2 7 7 8 7 8 8 9 7 10
4 4 3 2 5 2 2 4 4 6 3 7 4 8 8 5 5 5 6 6 5 8 11 10 6 5 13 5 1 1 5 6 7 4 1 5 7 2 9 7 8 8 7 7 6
3 3 5 4 1 3 5 5 3 4 5 2 4 8 6 7 3 8 6 6 4 4 8 9 5 2 11 8 4 3 4 5 6 4 6 7 7 3 4 3 7 9 7 8 7
2 5 5 5 2 3 5 4 6 6 5 4 4 4 4 5 7 7 4 4 3 4 5 9 4 10 12 11 6 5 4 4 7 5 5 7 4 5 2 5 4 5 6 6 8
4 1 1 4 4 4 1 3 6 6 5 7 6 6 4 5 7 4 6 5 3 0 4 4 7 6 7 8 6 6 10 8 5 5 7 6 11 10 11 10 11 7 6 7 7
3 4 5 4 4 5 4 3 7 5 3 5 5 12 2 3 4 6 6 5 6 3 4 1 2 3 1 4 6 6 8 7 7 5 2 5 8 3 3 3 4 7 8 8 9
3 2 3 4 5 2 1 4 7 10 6 4 9 4 4 6 11 15 12 11 8 4 3 2 3 4 2 2 4 4 7 6 5 4 7 7 11 7 6 8 9 8 8 10 10
Wind_Direction
3 0 359 356 353 348 343 340 336 332 326 323 321 319 317 319 311 155 249 221 180 129 108 121 154 202 189 230 115 129 75 198 196 159 253 128 212 216 222 155 217 136 133 137 140
359 356 356 354 352 348 344 342 336 328 321 315 312 312 315 327 307 249 244 221 219 142 173 183 165 173 199 173 126 112 136 232 187 172 179 151 259 289 137 172 59 83 99 129 143
355 353 351 350 348 344 341 340 336 325 315 307 302 303 307 320 291 245 225 210 205 165 217 72 133 175 298 153 196 164 203 232 201 175 77 158 188 165 126 180 180 152 146 154 154
351 350 347 346 344 340 336 334 335 324 312 295 292 299 308 253 183 260 260 185 153 148 111 90 43 59 141 172 358 220 72 133 96 150 146 167 45 83 175 200 169 151 154 160 166
346 345 343 337 325 324 328 324 331 323 304 285 275 289 291 21 253 132 83 137 125 134 154 141 52 81 41 6 315 30 65 50 87 95 67 77 46 338 78 152 153 149 160 173 175
338 332 326 325 326 324 320 319 322 317 290 258 235 245 126 266 240 152 125 130 150 158 160 168 163 127 84 15 47 306 85 118 40 75 109 86 353 275 126 163 158 166 173 180 187
330 328 327 327 327 325 320 318 320 305 270 221 197 219 119 236 15 148 138 180 176 158 174 189 162 138 151 203 207 67 80 100 146 122 118 98 14 70 288 116 181 178 184 188 195
329 328 326 327 326 324 319 320 318 290 232 181 182 214 244 249 149 156 162 247 205 195 211 171 144 105 103 138 72 43 88 109 204 159 165 197 200 231 219 53 168 177 200 203 203
328 327 327 326 326 325 322 322 311 209 123 146 129 178 268 327 185 208 151 198 154 169 250 290 126 114 80 89 25 13 285 159 197 197 146 213 237 232 245 215 211 204 208 201 207
329 328 326 328 329 328 327 320 128 112 129 210 253 349 275 212 224 178 187 152 177 123 59 125 55 106 70 106 224 202 229 183 184 187 179 186 257 216 216 219 240 251 196 187 198
330 328 328 330 326 322 331 107 22 46 185 211 199 244 292 251 236 181 150 119 142 79 151 24 86 236 203 194 200 162 179 222 209 194 140 209 236 246 196 212 231 224 223 193 200
330 329 331 327 322 324 149 76 126 139 293 230 241 244 252 59 359 300 111 139 134 185 102 33 217 239 139 172 167 152 185 257 82 151 139 190 230 245 194 223 222 205 210 210 148
329 328 329 326 324 118 268 234 34 359 230 286 202 199 200 142 211 242 146 157 147 164 176 178 216 136 186 173 156 196 199 214 222 121 44 97 292 235 248 227 201 215 201 193 176
326 326 331 328 35 331 279 280 316 201 41 278 251 255 157 132 244 199 193 137 164 193 173 215 248 227 227 227 154 213 208 199 172 126 219 169 269 251 191 235 227 208 187 189 191
323 322 328 327 297 306 274 333 323 66 342 251 192 86 146 150 171 236 189 79 176 182 118 232 183 149 215 239 154 230 154 197 181 94 75 240 29 266 142 217 225 219 194 188 181
316 319 327 136 231 246 317 311 53 44 256 320 134 160 126 205 266 77 153 65 159 173 207 228 223 176 224 239 192 77 70 45 52 60 322 213 158 281 192 211 217 210 198 183 182
314 310 290 254 233 97 315 31 46 161 313 343 323 175 156 177 166 144 170 204 189 125 285 328 269 251 177 262 148 95 85 50 21 10 226 58 130 249 277 217 204 200 182 181 183
317 311 218 210 248 293 37 55 191 240 255 319 326 194 186 159 196 202 157 217 233 98 116 156 319 181 176 183 193 171 152 154 192 186 239 143 222 252 289 75 146 192 186 174 182
318 334 259 256 196 66 82 101 205 212 306 356 331 42 346 99 47 159 198 217 207 162 172 151 273 283 193 198 141 182 151 183 99 0 56 278 290 310 67 76 92 153 162 182 185
333 342 278 84 157 83 77 235 248 265 359 358 282 27 352 330 347 170 179 213 220 183 159 221 287 227 283 132 121 159 163 92 12 135 234 294 285 245 294 171 147 150 199 180 190
5 25 306 134 130 50 149 230 265 282 349 305 226 323 243 308 228 244 241 245 205 151 147 143 120 270 36 216 162 67 188 54 112 124 155 219 259 220 225 225 163 193 210 191 184
350 49 318 52 48 36 157 213 299 289 259 247 218 220 227 199 281 251 240 215 144 160 169 203 154 243 234 269 214 103 170 135 125 218 153 151 269 190 247 233 156 196 187 178 185
22 279 310 91 76 343 310 300 269 326 297 268 259 216 220 206 231 208 233 260 287 174 191 177 214 253 324 350 4 145 159 120 113 88 185 142 259 341 343 195 178 159 170 186 178
44 8 330 36 59 48 360 290 336 309 277 332 249 5 323 253 214 257 236 270 315 202 9 142 146 169 219 214 158 143 175 126 127 112 167 218 246 279 250 196 170 148 156 187 187
25 4 152 325 335 335 233 299 323 0 332 352 350 13 337 335 336 247 251 272 248 188 113 170 187 169 223 211 156 153 168 169 120 162 154 241 201 215 202 196 192 168 160 165 170
56 22 350 290 306 300 5 357 339 349 288 326 347 324 31 139 182 277 352 284 219 270 130 342 174 177 301 205 182 161 172 168 147 144 202 179 250 262 164 91 134 173 166 166 160
328 353 91 293 332 350 30 333 317 348 285 333 317 306 309 312 303 259 236 251 249 261 156 85 173 65 227 121 79 20 212 182 164 180 145 158 214 150 179 177 189 182 185 166 162